Miscellaneous Local Product
Issued by NWS North Platte, NE

Home | Current Version | Previous Version | Graphics & Text | Print | Product List | Glossary On
Versions: 1 2 3 4 5 6 7 8 9 10 11 12 13 14 15 16 17 18 19 20 21 22 23 24 25 26 27 28 29 30 31 32 33 34 35 36 37 38 39 40 41 42 43 44 45 46 47 48 49 50
000
AXUS43 KLBF 290910
MISLBF


WESTERN AND NORTH CENTRAL NEBRASKA HOURLY WEATHER ROUNDUP
NATIONAL WEATHER SERVICE NORTH PLATTE NE
400 AM CDT FRI JUL 29 2016

NOTE: "FAIR" INDICATES FEW OR NO CLOUDS BELOW 12,000 FEET WITH NO
SIGNIFICANT WEATHER AND/OR OBSTRUCTIONS TO VISIBILITY.

NOTE: STATIONS NOT REPORTING VARIABLES SUCH AS SKY/WEATHER OR
PRESSURE ARE PROVIDED BY RAWS AND APRS NETWORKS AND ARE NOT UNDER
NATIONAL WEATHER SERVICE QUALITY CONTROL.

...OBSERVATIONS IN AND NEAR THE EASTERN PANHANDLE OF NEBRASKA...

CITY           SKY/WX    TMP DP  RH WIND       PRES   REMARKS
PINE RIDGE     CLEAR     55  55 100 CALM      30.15F
CHADRON        CLEAR     56  55  97 W3        30.15S
ALLIANCE       FOG       53  52  96 W5        30.17S VSB 3/4
SIDNEY         CLOUDY    62  60  93 NW3       30.18F
CRESCENT LAKE    N/A     58  57  97 CALM        N/A
$$

...OBSERVATIONS IN NORTHERN NEBRASKA AND FAR SOUTHERN SOUTH DAKOTA...

CITY           SKY/WX    TMP DP  RH WIND       PRES   REMARKS
WINNER         CLOUDY    64  62  93 CALM      30.10F
THEDFORD       FOG       57  56  97 CALM      30.13F VSB<1/4
AINSWORTH      HVY RAIN  61  61 100 N7        30.12F
O`NEILL        LGT RAIN  66  64  94 N6        30.09S
ORD            PTCLDY    63  61  93 NW6       30.06F
BROKEN BOW     CLEAR     60  60 100 W3        30.09F
VALENTINE NWR    N/A     59  59  99 CALM        N/A
BUTTE            N/A     63  62  95 NE5         N/A
EWING            N/A     66  64  95 CALM        N/A
$$

...OBSERVATIONS IN SOUTHWEST NEBRASKA AND FAR NORTHEAST COLORADO...

CITY           SKY/WX    TMP DP  RH WIND       PRES   REMARKS
WRAY           CLOUDY   N/A N/A N/A CALM      30.15F
IMPERIAL       PTCLDY    63  61  93 W5        30.13F
OGALLALA       CLEAR     60  58  92 CALM      30.13F
NORTH PLATTE   CLEAR     57  56  96 N3        30.11F
MCCOOK         PTCLDY    60  59  96 NW5       30.09F
LEXINGTON      CLEAR     61  59  94 CALM      30.09S FOG
STAPLETON        N/A     61  60  97 CALM        N/A
GOTHENBURG       N/A     62  58  87 CALM        N/A
CALLAWAY         N/A     60  59  97 CALM        N/A
$$

...OBSERVATIONS IN CENTRAL LINCOLN COUNTY AREA...

CITY           SKY/WX    TMP DP  RH WIND       PRES   REMARKS
N.P. AIRPORT   CLEAR     57  56  96 N3        30.11F
N.P. DOWNTOWN    N/A     61  60  96 CALM        N/A
N.P. SOUTHEAST   N/A     60  58  95 CALM        N/A
N.P. HILLCREST   N/A     60  59  96 NE3         N/A
$$

...SOME OBSERVATIONS FROM AROUND THE REGION...

CITY           SKY/WX    TMP DP  RH WIND       PRES   REMARKS
DENVER         PTCLDY    62  57  83 SE9       30.21F
LARAMIE        PTCLDY    55  53  93 SE8       30.30F
CHEYENNE       CLOUDY    58  56  93 SW8       30.26F
SCOTTSBLUFF    CLEAR     60  57  89 NE6       30.16F
RAPID CITY     FOG       57  56  96 E6        30.14F VSB 1/2
BISMARCK       CLOUDY    63  60  90 NE6       30.11F
PIERRE         PTCLDY    63  62  97 W7        30.08F
SIOUX FALLS    PTCLDY    57  54  89 N5        30.07F
OMAHA          CLOUDY    69  64  84 N7        30.00S
GRAND ISLAND   CLOUDY    66  65  96 N3        30.05F
KANSAS CITY    PTCLDY    68  63  84 N8        29.96F
WICHITA        CLOUDY    70  68  93 CALM      29.97S THUNDER
OKLAHOMA CITY  PTCLDY    75  69  81 SE8       29.95F
DALLAS         MOCLDY    79  70  74 S9        29.95R
AMARILLO       CLEAR     72  61  68 S12       30.07F
DODGE CITY     CLOUDY    67  65  93 E6        30.04F
HAYS           CLOUDY    66  57  72 NW7       30.03R
GOODLAND       CLOUDY    62  60  93 CALM      30.14F
$$




USA.gov is the U.S. government's official web portal to all federal, state and local government web resources and services.